Hourly Weather Kozula

Today, 20 October, Tuesday

Time Temperature Precipitation Wind Pressure Humidity
00:00 +3°C° 0 mm 3 mps 754 mmHg 85%
01:00 +3°C° 0 mm 3 mps 754 mmHg 86%
02:00 +3°C° 0 mm 3 mps 754 mmHg 88%
03:00 +3°C° 0 mm 3 mps 754 mmHg 89%
04:00 +3°C° 0 mm 3 mps 754 mmHg 90%
05:00 +2°C° 0 mm 3 mps 754 mmHg 92%
06:00 +3°C° 0 mm 3 mps 755 mmHg 91%
07:00 +3°C° 0 mm 3 mps 755 mmHg 91%
08:00 +4°C° 0 mm 2 mps 755 mmHg 90%
09:00 +5°C° 0 mm 2 mps 756 mmHg 85%
10:00 +6°C° 0 mm 2 mps 756 mmHg 80%
11:00 +8°C° 0 mm 3 mps 756 mmHg 74%
12:00 +8°C° 0 mm 3 mps 756 mmHg 71%
13:00 +9°C° 0 mm 3 mps 756 mmHg 67%
14:00 +10°C° 0 mm 3 mps 756 mmHg 63%
15:00 +10°C° 0 mm 2 mps 755 mmHg 67%
16:00 +9°C° 0 mm 2 mps 755 mmHg 71%
17:00 +9°C° 0 mm 2 mps 754 mmHg 75%
18:00 +9°C° 0 mm 3 mps 754 mmHg 75%
19:00 +7°C° 0 mm 4 mps 753 mmHg 75%
20:00 +7°C° 0 mm 4 mps 753 mmHg 75%
21:00 +7°C° 0 mm 4 mps 753 mmHg 76%
22:00 +7°C° 0 mm 4 mps 753 mmHg 77%
23:00 +6°C° 0 mm 4 mps 752 mmHg 77%

Tomorrow, 21 October, Wednesday

Time Temperature Precipitation Wind Pressure Humidity
00:00 +6°C° 0 mm 5 mps 752 mmHg 77%
01:00 +6°C° 0 mm 5 mps 752 mmHg 78%
02:00 +6°C° 0 mm 5 mps 751 mmHg 78%
03:00 +6°C° 0 mm 5 mps 751 mmHg 78%
04:00 +6°C° 0 mm 5 mps 750 mmHg 78%
05:00 +6°C° 0 mm 5 mps 750 mmHg 79%
06:00 +7°C° 0 mm 5 mps 750 mmHg 77%
07:00 +7°C° 0 mm 5 mps 750 mmHg 75%
08:00 +7°C° 0 mm 5 mps 750 mmHg 73%
09:00 +8°C° 0 mm 6 mps 750 mmHg 70%
10:00 +9°C° 0 mm 6 mps 749 mmHg 67%
11:00 +10°C° 0 mm 6 mps 749 mmHg 65%
12:00 +10°C° 0 mm 6 mps 749 mmHg 65%
13:00 +10°C° 0 mm 5 mps 749 mmHg 64%
14:00 +12°C° 0 mm 4 mps 749 mmHg 64%
15:00 +12°C° 0 mm 4 mps 749 mmHg 65%
16:00 +11°C° 0 mm 4 mps 749 mmHg 66%
17:00 +11°C° 0 mm 3 mps 749 mmHg 67%
18:00 +11°C° 0 mm 3 mps 749 mmHg 69%
19:00 +11°C° 0 mm 3 mps 749 mmHg 70%
20:00 +10°C° 0 mm 3 mps 749 mmHg 71%
21:00 +10°C° 0 mm 3 mps 749 mmHg 73%
22:00 +10°C° 0 mm 3 mps 749 mmHg 75%
23:00 +9°C° 0 mm 3 mps 749 mmHg 76%

Day after tomorrow, 22 October, Thursday

Time Temperature Precipitation Wind Pressure Humidity
00:00 +8°C° 0 mm 4 mps 749 mmHg 77%
01:00 +8°C° 0 mm 4 mps 749 mmHg 77%
02:00 +8°C° 0 mm 4 mps 749 mmHg 78%
03:00 +8°C° 0 mm 4 mps 749 mmHg 78%
04:00 +8°C° 0 mm 5 mps 749 mmHg 78%
05:00 +8°C° 0 mm 5 mps 749 mmHg 79%
06:00 +8°C° 0 mm 5 mps 749 mmHg 79%
07:00 +8°C° 0 mm 5 mps 749 mmHg 79%
08:00 +8°C° 0 mm 4 mps 749 mmHg 80%
09:00 +11°C° 0 mm 4 mps 749 mmHg 76%
10:00 +12°C° 0 mm 5 mps 749 mmHg 72%
11:00 +13°C° 0 mm 5 mps 749 mmHg 69%
12:00 +14°C° 0 mm 4 mps 749 mmHg 67%
13:00 +15°C° 0 mm 4 mps 749 mmHg 65%
14:00 +17°C° 0 mm 4 mps 749 mmHg 64%
15:00 +15°C° 0 mm 4 mps 749 mmHg 68%
16:00 +14°C° 0 mm 4 mps 748 mmHg 72%
17:00 +14°C° 0 mm 3 mps 748 mmHg 77%
18:00 +13°C° 0 mm 3 mps 748 mmHg 77%
19:00 +12°C° 0 mm 4 mps 748 mmHg 78%
20:00 +12°C° 0 mm 4 mps 748 mmHg 78%
21:00 +11°C° 0 mm 4 mps 748 mmHg 78%
22:00 +11°C° 0 mm 4 mps 748 mmHg 78%
23:00 +10°C° 0 mm 4 mps 748 mmHg 78%

23 October, Friday

Time Temperature Precipitation Wind Pressure Humidity
00:00 +10°C° 0 mm 4 mps 747 mmHg 80%
01:00 +10°C° 0 mm 4 mps 747 mmHg 81%
02:00 +8°C° 0 mm 4 mps 747 mmHg 83%
03:00 +9°C° 0 mm 3 mps 747 mmHg 84%
04:00 +9°C° 0 mm 3 mps 746 mmHg 85%
05:00 +9°C° 0 mm 3 mps 746 mmHg 86%
06:00 +10°C° 0 mm 3 mps 746 mmHg 85%
07:00 +10°C° 0 mm 4 mps 746 mmHg 85%
08:00 +10°C° 0 mm 4 mps 746 mmHg 84%
09:00 +11°C° 0 mm 4 mps 746 mmHg 81%
10:00 +12°C° 0 mm 4 mps 746 mmHg 78%
11:00 +13°C° 0 mm 4 mps 746 mmHg 75%
12:00 +14°C° 0 mm 4 mps 745 mmHg 73%
13:00 +15°C° 0 mm 4 mps 745 mmHg 71%
14:00 +15°C° 0 mm 4 mps 745 mmHg 69%
15:00 +15°C° 0 mm 4 mps 745 mmHg 71%
16:00 +14°C° 0 mm 4 mps 745 mmHg 74%
17:00 +14°C° 0 mm 4 mps 745 mmHg 76%
18:00 +13°C° 0 mm 4 mps 745 mmHg 79%
19:00 +13°C° 0 mm 4 mps 745 mmHg 81%
20:00 +12°C° 0 mm 4 mps 745 mmHg 83%
21:00 +12°C° 0 mm 4 mps 746 mmHg 84%
22:00 +11°C° 0 mm 4 mps 746 mmHg 85%
23:00 +11°C° 0 mm 4 mps 746 mmHg 86%

24 October, Saturday

Time Temperature Precipitation Wind Pressure Humidity
00:00 +11°C° 0 mm 4 mps 746 mmHg 87%
01:00 +10°C° 0 mm 4 mps 746 mmHg 87%
02:00 +10°C° 0 mm 3 mps 746 mmHg 88%
03:00 +9°C° 0 mm 3 mps 746 mmHg 87%
04:00 +9°C° 0 mm 3 mps 746 mmHg 87%
05:00 +8°C° 0 mm 4 mps 746 mmHg 87%
06:00 +8°C° 0.1 mm 4 mps 746 mmHg 86%
07:00 +8°C° 0.1 mm 4 mps 746 mmHg 84%
08:00 +10°C° 0.1 mm 4 mps 746 mmHg 83%
09:00 +9°C° 0.1 mm 5 mps 746 mmHg 78%
10:00 +10°C° 0.1 mm 6 mps 746 mmHg 72%
11:00 +10°C° 0.1 mm 6 mps 746 mmHg 67%
12:00 +10°C° 0.2 mm 7 mps 746 mmHg 71%
13:00 +9°C° 0.2 mm 7 mps 746 mmHg 74%
14:00 +9°C° 0.2 mm 7 mps 746 mmHg 78%
15:00 +9°C° 0.2 mm 7 mps 746 mmHg 76%
16:00 +9°C° 0.2 mm 7 mps 746 mmHg 74%
17:00 +9°C° 0.2 mm 7 mps 746 mmHg 72%
18:00 +8°C° 0.1 mm 7 mps 746 mmHg 74%
19:00 +8°C° 0.1 mm 6 mps 747 mmHg 75%
20:00 +7°C° 0.1 mm 6 mps 747 mmHg 76%
21:00 +7°C° 0 mm 6 mps 748 mmHg 77%
22:00 +7°C° 0 mm 6 mps 748 mmHg 78%
23:00 +7°C° 0 mm 6 mps 749 mmHg 79%

25 October, Sunday

Time Temperature Precipitation Wind Pressure Humidity
00:00 +5°C° 0 mm 6 mps 749 mmHg 81%
01:00 +5°C° 0 mm 6 mps 749 mmHg 83%
02:00 +5°C° 0 mm 6 mps 749 mmHg 85%
03:00 +4°C° 0 mm 6 mps 750 mmHg 86%
04:00 +5°C° 0 mm 5 mps 750 mmHg 87%
05:00 +5°C° 0 mm 5 mps 750 mmHg 89%
06:00 +5°C° 0 mm 5 mps 750 mmHg 90%
07:00 +5°C° 0 mm 5 mps 751 mmHg 91%
08:00 +3°C° 0 mm 5 mps 751 mmHg 92%
09:00 +6°C° 0 mm 5 mps 751 mmHg 86%
10:00 +7°C° 0 mm 5 mps 752 mmHg 81%
11:00 +8°C° 0 mm 5 mps 752 mmHg 75%
12:00 +9°C° 0 mm 5 mps 752 mmHg 72%
13:00 +9°C° 0 mm 5 mps 752 mmHg 68%
14:00 +10°C° 0 mm 5 mps 752 mmHg 64%
15:00 +10°C° 0 mm 4 mps 752 mmHg 68%
16:00 +10°C° 0 mm 3 mps 752 mmHg 72%
17:00 +9°C° 0 mm 2 mps 752 mmHg 76%
18:00 +8°C° 0 mm 2 mps 752 mmHg 79%
19:00 +9°C° 0 mm 1 mps 752 mmHg 82%
20:00 +8°C° 0 mm 1 mps 753 mmHg 85%
21:00 +8°C° 0 mm 1 mps 753 mmHg 86%
22:00 +8°C° 0 mm 1 mps 753 mmHg 86%
23:00 +7°C° 0 mm 1 mps 753 mmHg 87%

26 October, Monday

Time Temperature Precipitation Wind Pressure Humidity
00:00 +7°C° 0 mm 1 mps 753 mmHg 88%
01:00 +7°C° 0 mm 1 mps 753 mmHg 88%
02:00 +6°C° 0 mm 2 mps 753 mmHg 89%
03:00 +6°C° 0 mm 2 mps 753 mmHg 90%
04:00 +5°C° 0 mm 2 mps 753 mmHg 90%
05:00 +5°C° 0 mm 2 mps 752 mmHg 91%
06:00 +5°C° 0 mm 2 mps 752 mmHg 90%
07:00 +5°C° 0 mm 2 mps 752 mmHg 89%
08:00 +5°C° 0 mm 2 mps 752 mmHg 88%
09:00 +7°C° 0 mm 2 mps 752 mmHg 81%
10:00 +8°C° 0 mm 3 mps 752 mmHg 74%
11:00 +10°C° 0 mm 3 mps 752 mmHg 67%
12:00 +11°C° 0 mm 3 mps 752 mmHg 63%
13:00 +12°C° 0 mm 3 mps 752 mmHg 59%
14:00 +12°C° 0 mm 4 mps 752 mmHg 55%
15:00 +12°C° 0 mm 3 mps 751 mmHg 59%
16:00 +11°C° 0 mm 3 mps 751 mmHg 62%
17:00 +10°C° 0 mm 3 mps 751 mmHg 66%
18:00 +9°C° 0 mm 3 mps 751 mmHg 70%
19:00 +8°C° 0 mm 3 mps 751 mmHg 73%
20:00 +8°C° 0 mm 3 mps 751 mmHg 76%
21:00 +7°C° 0 mm 3 mps 751 mmHg 78%
22:00 +7°C° 0 mm 3 mps 751 mmHg 80%
23:00 +7°C° 0 mm 3 mps 752 mmHg 82%
Show more